Total_Precipitation_Accumulation
1.12 1.00 0.94 1.11 1.10 1.13 1.15 1.15 1.15 1.01 0.90 0.79 0.76 0.69 0.73 0.72 0.70 0.67 0.83 0.89 1.14 1.49 1.62 1.57 1.53 1.35 1.34 1.31 1.37 1.45 1.51 1.48 1.71 1.98 2.08 2.15 2.02 1.66 1.32 1.16 1.18 1.08 1.13
1.02 1.02 0.89 0.95 1.04 1.17 1.35 1.36 1.21 1.11 1.03 0.95 0.94 0.89 0.87 0.83 0.80 0.68 0.78 0.85 0.80 0.95 1.24 1.58 1.76 1.62 1.52 1.45 1.45 1.51 1.53 1.49 1.59 1.83 1.92 2.02 2.04 1.75 1.31 1.14 1.11 1.03 1.17
0.86 0.98 0.97 0.94 0.98 1.19 1.38 1.47 1.38 1.27 1.12 1.05 1.04 1.01 0.92 0.94 0.93 0.83 0.83 0.92 0.78 0.75 0.98 1.40 1.75 1.83 1.74 1.72 1.63 1.60 1.51 1.45 1.48 1.60 1.73 1.73 1.79 1.68 1.36 1.18 1.11 1.10 1.12
0.92 1.04 1.08 1.01 1.03 1.21 1.38 1.52 1.58 1.54 1.41 1.32 1.25 1.16 1.11 1.19 1.08 0.97 0.93 0.97 1.06 0.95 0.90 1.07 1.35 1.62 1.84 1.90 1.72 1.55 1.44 1.35 1.34 1.36 1.49 1.39 1.44 1.47 1.29 1.16 1.17 1.21 1.21
0.93 1.07 1.23 1.25 1.24 1.34 1.39 1.40 1.49 1.46 1.49 1.48 1.34 1.31 1.25 1.33 1.32 1.14 1.13 1.15 1.20 1.17 1.03 0.88 0.98 1.03 1.40 1.78 1.81 1.66 1.53 1.40 1.31 1.25 1.37 1.24 1.19 1.27 1.15 1.13 1.18 1.22 1.19
1.16 1.12 1.24 1.26 1.31 1.46 1.48 1.59 1.74 1.62 1.52 1.61 1.51 1.43 1.38 1.35 1.32 1.32 1.35 1.37 1.37 1.25 1.20 1.04 1.03 0.84 0.95 1.26 1.48 1.60 1.56 1.57 1.51 1.39 1.41 1.27 1.13 1.14 1.14 1.06 1.05 1.09 1.13
1.29 1.31 1.31 1.31 1.33 1.39 1.43 1.61 1.94 1.89 1.71 1.62 1.80 1.77 1.68 1.49 1.40 1.40 1.41 1.53 1.54 1.37 1.34 1.39 1.26 1.04 0.86 0.85 0.97 1.29 1.44 1.63 1.74 1.64 1.60 1.42 1.16 1.14 1.18 1.01 1.03 1.09 1.07
1.27 1.21 1.35 1.44 1.39 1.49 1.57 1.72 1.97 2.11 1.90 1.74 2.03 2.41 2.19 1.93 1.61 1.43 1.43 1.37 1.46 1.47 1.40 1.29 1.23 1.16 1.01 0.96 0.73 0.86 1.13 1.47 1.74 1.72 1.64 1.52 1.28 1.16 1.16 1.04 1.02 1.08 1.10
1.52 1.45 1.53 1.66 1.56 1.58 1.64 1.69 1.76 2.13 2.24 2.05 2.02 2.49 2.35 2.20 2.12 1.66 1.35 1.22 1.41 1.52 1.53 1.41 1.31 1.33 1.26 1.16 0.94 0.70 0.79 1.04 1.48 1.68 1.66 1.60 1.45 1.29 1.17 1.10 1.08 1.09 1.18
1.74 1.63 1.63 1.67 1.67 1.72 1.67 1.55 1.69 2.04 2.44 2.44 2.26 2.07 1.94 1.93 2.10 1.99 1.48 1.23 1.31 1.45 1.62 1.52 1.45 1.45 1.41 1.37 1.27 0.93 0.68 0.73 1.18 1.72 1.89 1.83 1.68 1.47 1.38 1.31 1.24 1.23 1.21
1.74 1.60 1.54 1.59 1.65 1.74 1.74 1.78 1.92 2.19 2.42 2.59 2.53 2.28 2.05 1.86 1.56 1.73 1.72 1.52 1.32 1.27 1.35 1.44 1.54 1.51 1.44 1.37 1.41 1.19 0.81 0.65 0.85 1.43 1.90 2.02 1.87 1.69 1.63 1.58 1.54 1.56 1.46
1.57 1.53 1.51 1.48 1.45 1.52 1.62 1.78 2.00 2.13 2.30 2.50 2.51 2.24 2.07 1.94 1.77 1.68 1.55 1.62 1.60 1.35 1.22 1.21 1.32 1.43 1.43 1.40 1.23 1.28 1.06 0.79 0.72 0.89 1.24 1.64 1.77 1.78 1.76 1.74 1.68 1.66 1.71
1.35 1.36 1.39 1.34 1.25 1.24 1.36 1.53 1.75 1.82 1.93 2.12 2.19 2.09 1.98 1.81 1.76 1.84 1.80 1.71 1.59 1.33 1.21 1.06 1.12 1.25 1.24 1.30 1.35 1.35 1.12 0.96 0.77 0.72 0.77 0.94 1.23 1.55 1.78 1.92 1.95 1.90 1.83
1.17 1.11 1.15 1.15 1.14 1.14 1.16 1.25 1.37 1.45 1.55 1.72 1.81 1.84 1.74 1.70 1.73 1.72 1.75 1.88 1.75 1.52 1.21 0.91 0.93 1.06 1.03 1.07 1.27 1.30 0.96 0.89 0.79 0.72 0.69 0.68 0.74 0.94 1.28 1.51 1.72 1.92 1.96
0.94 0.91 0.98 1.06 1.13 1.07 1.02 1.08 1.16 1.21 1.33 1.48 1.62 1.76 1.70 1.66 1.67 1.72 1.78 1.81 1.82 1.69 1.42 1.02 0.86 0.83 0.87 0.92 1.15 1.06 0.93 0.89 0.79 0.74 0.67 0.59 0.54 0.55 0.68 0.86 1.07 1.27 1.40
0.86 0.87 0.89 0.90 0.93 0.92 0.95 1.04 1.14 1.22 1.25 1.31 1.41 1.55 1.68 1.71 1.74 1.75 1.79 1.80 1.75 1.70 1.58 1.18 0.92 0.78 0.86 0.83 0.96 0.83 0.94 1.09 0.86 0.72 0.65 0.59 0.55 0.52 0.52 0.58 0.63 0.68 0.70
0.67 0.69 0.67 0.71 0.82 0.83 0.83 0.93 1.00 1.02 1.13 1.23 1.25 1.28 1.45 1.59 1.70 1.74 1.75 1.74 1.78 1.72 1.54 1.33 1.05 0.86 0.94 0.93 0.93 0.83 0.89 0.95 0.84 0.78 0.69 0.61 0.54 0.54 0.50 0.51 0.50 0.47 0.48
0.45 0.51 0.55 0.54 0.72 0.89 0.90 0.94 0.95 0.93 1.00 1.06 1.11 1.18 1.27 1.31 1.39 1.53 1.64 1.64 1.71 1.73 1.63 1.53 1.27 1.04 1.00 0.99 1.08 1.11 1.08 1.04 1.00 1.06 1.01 0.83 0.69 0.62 0.55 0.50 0.46 0.42 0.39
0.35 0.39 0.52 0.51 0.56 0.73 0.84 0.85 0.82 0.84 0.88 0.94 0.97 1.02 1.07 1.15 1.25 1.29 1.38 1.47 1.54 1.59 1.64 1.57 1.48 1.34 1.18 1.10 1.11 1.08 1.18 1.34 1.29 1.26 1.30 1.12 0.90 0.77 0.68 0.61 0.54 0.47 0.42
0.36 0.35 0.36 0.38 0.44 0.54 0.67 0.69 0.68 0.70 0.74 0.77 0.87 0.93 0.98 1.03 1.10 1.18 1.20 1.32 1.45 1.54 1.55 1.51 1.46 1.39 1.32 1.29 1.26 1.21 1.27 1.40 1.49 1.39 1.36 1.28 1.19 1.07 0.91 0.79 0.68 0.60 0.56
0.22 0.24 0.21 0.22 0.27 0.36 0.42 0.43 0.51 0.58 0.65 0.70 0.80 0.82 0.85 0.82 0.86 0.93 0.92 1.09 1.25 1.43 1.49 1.53 1.45 1.34 1.28 1.29 1.27 1.28 1.34 1.50 1.55 1.58 1.57 1.44 1.32 1.15 1.02 0.91 0.78 0.71 0.67
0.09 0.14 0.14 0.16 0.20 0.23 0.29 0.29 0.34 0.47 0.58 0.63 0.70 0.74 0.80 0.82 0.78 0.74 0.73 0.81 0.94 1.06 1.23 1.36 1.40 1.32 1.24 1.22 1.31 1.43 1.45 1.52 1.62 1.56 1.47 1.54 1.46 1.35 1.17 0.98 0.95 0.91 0.82
0.06 0.09 0.09 0.14 0.17 0.15 0.17 0.17 0.29 0.49 0.54 0.55 0.54 0.66 0.78 0.84 0.87 0.89 0.77 0.76 0.77 0.81 0.91 1.08 1.21 1.22 1.20 1.22 1.29 1.38 1.45 1.49 1.41 1.46 1.42 1.49 1.47 1.35 1.20 1.12 1.16 1.03 0.93
0.04 0.08 0.09 0.15 0.14 0.10 0.11 0.15 0.22 0.38 0.47 0.45 0.47 0.57 0.72 0.84 0.87 0.89 0.84 0.90 0.88 0.79 0.76 0.84 1.02 1.10 1.10 1.23 1.36 1.46 1.58 1.57 1.52 1.50 1.42 1.43 1.38 1.25 1.15 1.14 1.21 1.07 0.97
0.04 0.07 0.11 0.12 0.09 0.06 0.07 0.12 0.20 0.38 0.46 0.47 0.44 0.52 0.67 0.76 0.86 0.87 0.84 0.95 0.95 0.78 0.71 0.81 0.85 0.92 1.00 1.13 1.31 1.45 1.54 1.55 1.53 1.51 1.36 1.23 1.18 1.23 1.23 1.16 1.13 1.11 0.99
0.05 0.06 0.09 0.10 0.08 0.08 0.07 0.08 0.15 0.26 0.36 0.44 0.44 0.49 0.69 0.75 0.77 0.74 0.76 0.96 1.06 0.93 0.70 0.68 0.75 0.88 0.96 1.09 1.32 1.46 1.68 1.68 1.49 1.45 1.34 1.21 1.20 1.28 1.40 1.31 1.13 1.02 0.94